Tracking 28514 objects as of 23-Feb-2024
HD Live streaming from Space Station
objects crossing your sky now

TRACE

Track TRACE now!
10-day predictions
TRACE is classified as:


NORAD ID: 25280
Int'l Code: 1998-020A
Perigee: 474.5 km
Apogee: 496.7 km
Inclination: 97.5 °
Period: 94.2 minutes
Semi major axis: 6856 km
RCS: 1.591 m2 (large)
Launch date: April 2, 1998
Source: United States (US)
Launch site: Pegasus launched from Western Range Air Space (WRAS)

Coordinates with SOHO; image the solar corona and transition region at high angular and temporal resolution.
Your satellite tracking list
Your tracking list is empty




NASA's NSSDC Master Catalog

Two Line Element Set (TLE):
1 25280U 98020A   24053.53029141  .00017118  00000-0  60537-3 0  9997
2 25280  97.4546 244.8527 0016157 208.9088 151.1259 15.29115011419836
Source of the keplerian elements: AFSPC